Weather Roundup
Issued by NWS

Home | Current Version | Previous Version | Text Only | Print | Product List | Glossary On
Versions: 1 2 3 4 5 6 7 8 9 10 11 12 13 14 15 16 17 18 19 20 21 22 23 24 25 26 27 28 29 30 31 32 33 34 35 36 37 38 39 40 41 42 43 44 45 46 47 48 49 50
000
NZUS93 KARX 011959
HRRWXR

CURRENT HOURLY OBSERVATIONS ACROSS
MUCH OF THE UPPER MISSISSIPPI VALLEY
NATIONAL WEATHER SERVICE LA CROSSE WI
300 PM CDT SUN MAY 01 2016


...SOUTHEAST MINNESOTA...


CITY           SKY/WX    TMP DP  RH WIND       PRES   REMARKS
ROCHESTER      CLOUDY    57  39  51 NE13      30.08F
ROCHESTER/MAYO FAIR      57  33  39 NE10G20   30.07S
WINONA         CLOUDY    57  37  47 SE12      30.07S
AUSTIN         CLOUDY    54  37  54 NE10      30.07S
ALBERT LEA     NOT AVBL
DODGE CENTER   CLOUDY    55  37  50 E7        30.07F
PRESTON        CLOUDY    53  39  60 NE10G18   30.07S
OWATONNA       CLOUDY    61  34  36 NE6G21    30.08S
FARIBAULT      NOT AVBL
$$

...ELSEWHERE IN MINNESOTA...


CITY           SKY/WX    TMP DP  RH WIND       PRES   REMARKS
MINNEAPOLIS    PTSUNNY   60  35  39 NE8G18    30.11F
INTNL FALLS    SUNNY     57  29  34 N12       30.20F
DULUTH         MOSUNNY   53  34  48 E12       30.18F
RED WING       MOSUNNY   63  30  29 NE10G17   30.07F
REDWOOD FALLS  MOSUNNY   60  33  36 N12G18    30.14F
MANKATO        PTSUNNY   57  36  44 N12G18    30.11S
WORTHINGTON    CLOUDY    53  37  54 NE14      30.14S
FAIRMONT       CLOUDY    55  37  50 NE13      30.10F
$$

...SOUTHWEST WISCONSIN...


CITY           SKY/WX    TMP DP  RH WIND       PRES   REMARKS
LA CROSSE      CLOUDY    56  38  50 NE8       30.06F
PRAIRIE DU CHI CLOUDY    51  41  68 NE9       30.04S
BOSCOBEL       CLOUDY    53  42  66 NE7       30.05S
LONE ROCK      NOT AVBL
PLATTEVILLE    CLOUDY    52  46  79 NE15      30.02R
FORT MC COY    CLOUDY    55  40  57 E7        30.07F
MAUSTON-NEW LI CLOUDY    55  42  62 NE7       30.05F
VIROQUA        CLOUDY    51  41  69 NE7       30.05S
WIS DELLS      CLOUDY    56  38  52 NE15G23   30.03F
$$

...ELSEWHERE IN WISCONSIN...


CITY           SKY/WX    TMP DP  RH WIND       PRES   REMARKS
MILWAUKEE      CLOUDY    46  40  79 NE16      30.03F
MADISON        PTSUNNY   58  43  57 NE14      30.01F
GREEN BAY      PTSUNNY   57  41  55 NE18      30.09S
EAU CLAIRE     NOT AVBL
BLACK RVR FLS  MOCLDY    60  31  33 E10G22    30.06F
MEDFORD        CLOUDY    60  32  35 NE9       30.06F
WAUSAU         CLOUDY    62  30  29 E12       30.04F
WIS RAPIDS     CLOUDY    59  29  31 E12G21    30.08F
MARSHFIELD     CLOUDY    58  29  33 E14       30.06F
RICE LAKE      PTSUNNY   59  32  36 N13G21    30.11F
$$

...NORTHEAST IOWA...


CITY           SKY/WX    TMP DP  RH WIND       PRES   REMARKS
WATERLOO       LGT RAIN  47  44  90 NE7       30.05R
DUBUQUE        CLOUDY    49  44  83 E12       30.02R
DECORAH        CLOUDY    50  41  71 NE9       30.04S
MASON CITY     CLOUDY    52  43  71 N15       30.08S
CHARLES CITY   CLOUDY    50  45  81 N10       30.05F
OELWEIN        CLOUDY    48  45  87 NE9G15    30.04R
$$

...ELSEWHERE IN IOWA...


CITY           SKY/WX    TMP DP  RH WIND       PRES   REMARKS
DES MOINES     LGT RAIN  48  44  86 N9        30.06R
IOWA CITY      LGT RAIN  49  46  90 E6        30.02S
FORT DODGE     CLOUDY    46  41  81 N6        30.10R
MARSHALLTOWN   LGT RAIN  47  45  93 N10       30.04R FOG
CEDAR RAPIDS   LGT RAIN  48  48 100 NE10      30.00S FOG
$$

...NORTHERN ILLINOIS...


CITY           SKY/WX    TMP DP  RH WIND       PRES   REMARKS
CHICAGO-OHARE  CLOUDY    48  44  86 NE10      30.00S
CHICAGO-MIDWAY CLOUDY    51  45  79 N9        30.00F
MOLINE         CLOUDY    52  46  80 E9        29.99S
ROCKFORD       CLOUDY    53  45  74 E12       30.03R
PEORIA         CLOUDY    54  50  86 E8        29.95F FOG
$$

NOTE: "FAIR" INDICATES FEW OR NO CLOUDS BELOW 12,000 FEET WITH NO
SIGNIFICANT WEATHER AND/OR OBSTRUCTIONS TO VISIBILITY. WIND
SPEEDS ARE IN MILES-PER-HOUR.




USA.gov is the U.S. government's official web portal to all federal, state and local government web resources and services.